Regional Weather Roundup
Issued by NWS Bismarck, ND

Home | Current Version | Previous Version | Text Only | Print | Product List | Glossary On
Versions: 1 2 3 4 5 6 7 8 9 10 11 12 13 14 15 16 17 18 19 20 21 22 23 24 25 26 27 28 29 30 31 32 33 34 35 36 37 38 39 40 41 42 43 44 45 46 47 48 49 50
000
ASUS43 KBIS 290210
RWRBIS

NWR BROADCAST TEXT
NATIONAL WEATHER SERVICE BISMARCK ND
900 PM CDT FRI APR 28 2017

NOTE: "FAIR" INDICATES FEW OR NO CLOUDS BELOW 12,000 FEET WITH NO
SIGNIFICANT WEATHER AND/OR OBSTRUCTIONS TO VISIBILITY.


CITY           SKY/WX    TMP DP  RH WIND       PRES   REMARKS
WILLISTON      FAIR      52  20  28 S5        30.11R
MINOT          FAIR      48  19  31 CALM      30.11R
MINOT AFB      FAIR      52  20  28 CALM      30.10R
BISMARCK       FAIR      51  15  23 NE5       30.14R
DICKINSON      FAIR      46  14  27 SE5       30.11R
GARRISON         N/A     41  19  41 SW7       30.12R
HETTINGER ARPT FAIR      45  20  36 SE7       30.14R
JAMESTOWN      FAIR      43  27  53 N7        30.11R
HAZEN          FAIR      37  19  48 CALM      30.15R
LINTON           N/A     48  19  32 NE5       30.14R
MANDAN         FAIR      46  14  27 N6        30.14R
STANLEY        FAIR      45  21  39 SW6       30.14R
TIOGA          MOCLDY    45  18  33 S7        30.13R
WATFORD CITY   FAIR      50  23  34 N5        30.11R
$$

CITY           SKY/WX    TMP DP  RH WIND       PRES   REMARKS
GRAND FORKS    FAIR      44  28  53 NW7       30.12R
GRAND FORKS AF FAIR      41  29  60 N6        30.13R
DEVILS LAKE    FAIR      47  21  35 NE6       30.12R
FARGO          FAIR      46  26  45 N5        30.11R
CAVALIER       FAIR      45  19  36 N6        30.12R
GRAFTON        FAIR      43  23  45 NW9       30.13R
GWINNER        CLEAR     46  28  49 MISG      30.11R
LANGDON        FAIR      41  19  42 NE8       30.12R
ROLLA          FAIR      41  18  38 NW7       30.12R
$$

CITY           SKY/WX    TMP DP  RH WIND       PRES   REMARKS
ABERDEEN       FAIR      44  22  41 NE6       30.10R
MOBRIDGE       FAIR      47  13  25 NE8       30.09R
BUFFALO          N/A     46  25  43 E9        30.07R
RAPID CITY     FAIR      40  28  62 NE6       30.12R
GLASGOW        MOCLDY    51  24  34 VRB7      30.09R
SIDNEY         FAIR      46  26  45 CALM      30.12R
WOLF POINT     FAIR      54  19  25 S3        30.09R
MILES CITY     FAIR      50  24  36 W3        30.12R
BAKER          FAIR      46  25  43 SE6       30.12R
$$

CITY           SKY/WX    TMP DP  RH WIND       PRES   REMARKS
BILLINGS       CLOUDY    44  34  67 CALM      30.13R
GREAT FALLS    MOCLDY    42  35  76 SE7       30.14R
REGINA         MOCLDY    45  34  65 NW13      30.09R
ESTEVAN        PTCLDY    50  27  40 SE6       30.10R
$$





USA.gov is the U.S. government's official web portal to all federal, state and local government web resources and services.